📊 Raw Sensor Data
Showing records 49601 to 49625 of 85,122 total
| ID | Distance (ft) | Battery V | Battery A | Int Temp (°F) | Int Humid (%) | Ext Temp (°F) | Solar V | RSSI | SNR | Time Stamp |
|---|---|---|---|---|---|---|---|---|---|---|
| 35534 | 15.3 | 4.04 | 0 | 74 | 38 | 64 | 5.10 | -86 | 7 | 03/20/2025 04:00 PM |
| 35533 | 15.3 | 4.13 | 0 | 74 | 38 | 63 | 5.10 | -82 | 7 | 03/20/2025 03:45 PM |
| 35532 | 15.4 | 4.04 | 0 | 73 | 38 | 63 | 5.10 | -83 | 8 | 03/20/2025 03:30 PM |
| 35531 | 15.4 | 4.12 | 0 | 74 | 37 | 63 | 5.10 | -86 | 7 | 03/20/2025 03:15 PM |
| 35530 | 15.4 | 4.06 | 0 | 74 | 36 | 62 | 5.10 | -81 | 8 | 03/20/2025 03:00 PM |
| 35529 | 15.4 | 4.14 | 0 | 73 | 36 | 61 | 5.10 | -84 | 7 | 03/20/2025 02:45 PM |
| 35528 | 15.3 | 4.04 | 0 | 71 | 36 | 61 | 5.10 | -84 | 8 | 03/20/2025 02:30 PM |
| 35527 | -- | 4.04 | 0 | 70 | 36 | 60 | 5.10 | -86 | 7 | 03/20/2025 02:16 PM |
| 35526 | 15.4 | 4.04 | 0 | 68 | 36 | 59 | 5.10 | -85 | 8 | 03/20/2025 02:00 PM |
| 35525 | 15.4 | 4.04 | 0 | 67 | 36 | 59 | 5.10 | -86 | 6 | 03/20/2025 01:45 PM |
| 35524 | 15.4 | 4.08 | 0 | 65 | 37 | 58 | 5.10 | -85 | 7 | 03/20/2025 01:30 PM |
| 35523 | -- | 4.04 | 0 | 64 | 38 | 57 | 5.10 | -88 | 8 | 03/20/2025 01:15 PM |
| 35522 | -- | 4.04 | 0 | 63 | 38 | 57 | 5.10 | -87 | 8 | 03/20/2025 01:00 PM |
| 35521 | 15.4 | 4.05 | 0 | 63 | 38 | 56 | 5.10 | -83 | 7 | 03/20/2025 12:45 PM |
| 35520 | -- | 4.04 | 0 | 63 | 38 | 56 | 5.10 | -82 | 8 | 03/20/2025 12:30 PM |
| 35519 | 15.5 | 4.04 | 0 | 62 | 37 | 56 | 5.10 | -84 | 8 | 03/20/2025 12:15 PM |
| 35518 | 15.5 | 4.04 | 0 | 61 | 38 | 57 | 5.10 | -84 | 8 | 03/20/2025 12:01 PM |
| 35517 | 15.4 | 4.04 | 0 | 60 | 37 | 55 | 5.10 | -83 | 8 | 03/20/2025 11:45 AM |
| 35516 | -- | 4.03 | 0 | 60 | 37 | 56 | 5.10 | -85 | 8 | 03/20/2025 11:30 AM |
| 35515 | 15.5 | 4.11 | 0 | 58 | 38 | 56 | 5.10 | -84 | 7 | 03/20/2025 11:15 AM |
| 35514 | 15.4 | 4.04 | 0 | 57 | 37 | 54 | 5.10 | -83 | 8 | 03/20/2025 11:00 AM |
| 35513 | 15.4 | 4.03 | 0 | 55 | 36 | 54 | 5.10 | -82 | 7 | 03/20/2025 10:30 AM |
| 35512 | 15.4 | 4.03 | 0 | 54 | 36 | 53 | 5.10 | -82 | 8 | 03/20/2025 10:15 AM |
| 35511 | -- | 4.03 | 0 | 51 | 37 | 52 | 5.10 | -82 | 8 | 03/20/2025 10:00 AM |
| 35510 | 15.3 | 4.03 | 0 | 49 | 37 | 49 | 5.10 | -82 | 8 | 03/20/2025 09:45 AM |